Home > Weather > Xi'an > Past weeks

Flag for China Past Weather in Xi'an, Shaanxi, China — Yesterday and Last 2 Weeks

Now
72 °F

Scattered clouds.


Feels Like: 77 °F
Forecast: 53 / 87 °F
Wind: 1 mph from North

Location: Xian/Xianyang

Current Time: May 28, 2016 at 2:00:11 PM

Latest Report: May 28, 2016 at 1:00 PM


Visibility: N/A

Pressure: 29.86 "Hg

Humidity: 50%

Dew Point: 52 °F

Location of Xi'anLocation

Past Weather in Xi'an — Graph

°F

Xi'an Temperature Yesterday

Maximum temperature yesterday: 61 °F (at 5:00 PM)
Minimum temperature yesterday: 55 °F (at 3:00 AM)
Average temperature yesterday: 57 °F

High & Low Weather Summary for the Past Weeks

 TemperatureHumidityPressure
High84 °F (May 18, 2:00 PM)100% (May 14, 8:00 AM)30.30 "Hg (May 14, 8:00 AM)
Low41 °F (May 16, 5:00 AM)19% (May 15, 2:00 PM)29.56 "Hg (May 24, 5:00 PM)
Average65 °F67%29.95 "Hg
* Reported May 13 12:00 PM — May 28 12:00 PM, Xi'an, Weather by CustomWeather, © 2016

Note: Actual official high and low records may vary slightly from our data, if they occured in-between our weather recording intervals... More about our weather records

Advertising

Xi'an Weather History for the Previous 24 Hours

Scroll right to see more
 ConditionsComfort  
Time TempWeatherWind HumidityBarometerVisibility
12:00 PM
Sat, May 28
68 °FHaze.3 mph64%29.86 "Hg3 mi
11:00 AM66 °FScattered clouds.No wind68%29.89 "Hg3 mi
10:00 AM64 °FFog.3 mph78%29.89 "Hg3 mi
9:00 AM63 °FFog.3 mph77%29.89 "Hg3 mi
8:00 AM59 °FFog.3 mph94%29.92 "Hg2 mi
7:00 AM57 °FFog.3 mph100%29.89 "Hg2 mi
6:00 AM57 °FFog.1 mph100%29.89 "Hg2 mi
5:00 AM57 °FFog.1 mph100%29.89 "Hg2 mi
4:00 AM57 °FFog.1 mph100%29.89 "Hg3 mi
3:00 AM57 °FFog.No wind100%29.89 "Hg3 mi
2:00 AM57 °FFog.1 mph100%29.92 "Hg3 mi
1:00 AM57 °FOvercast.No wind100%29.92 "Hg4 mi
12:00 AM57 °FOvercast.1 mph100%29.95 "Hg4 mi
11:00 PM
Fri, May 27
57 °FOvercast.1 mph100%29.95 "Hg4 mi
10:00 PM57 °FOvercast.1 mph100%29.95 "Hg4 mi
9:00 PM59 °FOvercast.No wind94%29.95 "Hg4 mi
8:00 PM59 °FMore clouds than sun.1 mph94%29.92 "Hg4 mi
7:00 PM59 °FMore clouds than sun.1 mph88%29.92 "Hg5 mi
6:00 PM61 °FScattered clouds.1 mph77%29.92 "Hg5 mi
5:00 PM61 °FLow clouds.3 mph88%29.92 "Hg5 mi
4:00 PM59 °FFog.6 mph94%29.95 "Hg3 mi
3:00 PM57 °FLight rain. Fog.6 mph100%29.95 "Hg2 mi
2:00 PM57 °FFog.3 mph100%29.98 "Hg3 mi
Weather by CustomWeather, © 2016

See weather overviewHow to use our weather pages